| time (UTC) | temp F | wind direction | speed knots | gust knots | rain 1hr in | rain 24hr in | rain mn in | humidity % | barometer mb |
| 20260505011635 | 75 | 171 | 3.5 | 5.2 | 0.00 | 0.00 | 0.00 | 1 | 1004.7 |
| 20260505011133 | 75 | 172 | 4.3 | 4.3 | 0.00 | 0.00 | 0.00 | 1 | 1004.6 |
| 20260505010628 | 75 | 176 | 2.6 | 2.6 | 0.00 | 0.00 | 0.00 | 1 | 1004.6 |
| 20260505010125 | 76 | 225 | 4.3 | 5.2 | 0.00 | 0.00 | 0.00 | 1 | 1005.0 |
| 20260505005621 | 76 | 188 | 4.3 | 6.1 | 0.00 | 0.00 | 0.00 | 1 | 1004.7 |
| 20260505005118 | 76 | 220 | 3.5 | 5.2 | 0.00 | 0.00 | 0.00 | 1 | 1004.5 |
| 20260505004615 | 76 | 234 | 5.2 | 7.0 | 0.00 | 0.00 | 0.00 | 1 | 1004.6 |
| 20260505004112 | 76 | 157 | 3.5 | 5.2 | 0.00 | 0.00 | 0.00 | 1 | 1004.4 |
| 20260505003609 | 76 | 187 | 1.7 | 1.7 | 0.00 | 0.00 | 0.00 | 1 | 1004.3 |
| 20260505003106 | 77 | 224 | 5.2 | 5.2 | 0.00 | 0.00 | 0.00 | 1 | 1004.1 |
| 20260505002601 | 77 | 163 | 6.1 | 8.7 | 0.00 | 0.00 | 0.00 | 1 | 1004.2 |
| 20260505002055 | 77 | 153 | 1.7 | 1.7 | 0.00 | 0.00 | 0.00 | 1 | 1004.3 |
| 20260505001552 | 77 | 188 | 2.6 | 2.6 | 0.00 | 0.00 | 0.00 | 1 | 1003.9 |
| 20260505001049 | 77 | 176 | 3.5 | 4.3 | 0.00 | 0.00 | 0.00 | 1 | 1004.0 |
| 20260505000546 | 78 | 164 | 3.5 | 5.2 | 0.00 | 0.00 | 0.00 | 1 | 1004.2 |
| 20260505000044 | 78 | 204 | 4.3 | 5.2 | 0.00 | 0.00 | 0.00 | 1 | 1003.9 |
| 20260504235540 | 78 | 184 | 4.3 | 5.2 | 0.00 | 0.00 | 0.00 | 1 | 1004.2 |
| 20260504235037 | 78 | 216 | 5.2 | 7.0 | 0.00 | 0.00 | 0.00 | 1 | 1004.0 |
| 20260504234534 | 79 | 224 | 4.3 | 5.2 | 0.00 | 0.00 | 0.00 | 1 | 1004.1 |
| 20260504234031 | 79 | 184 | 3.5 | 4.3 | 0.00 | 0.00 | 0.00 | 1 | 1004.0 |
| 20260504233526 | 79 | 218 | 6.1 | 7.0 | 0.00 | 0.00 | 0.00 | 1 | 1004.0 |
| 20260504233024 | 80 | 206 | 7.0 | 11.3 | 0.00 | 0.00 | 0.00 | 1 | 1004.1 |
| 20260504232521 | 80 | 199 | 5.2 | 6.1 | 0.00 | 0.00 | 0.00 | 1 | 1004.0 |
| 20260504232018 | 80 | 260 | 8.7 | 11.3 | 0.00 | 0.00 | 0.00 | 1 | 1004.1 |
| 20260504231515 | 80 | 224 | 9.6 | 12.2 | 0.00 | 0.00 | 0.00 | 1 | 1004.2 |
| 20260504231011 | 80 | 179 | 10.4 | 13.0 | 0.00 | 0.00 | 0.00 | 1 | 1004.1 |
| 20260504230508 | 80 | 206 | 5.2 | 6.1 | 0.00 | 0.00 | 0.00 | 1 | 1004.2 |
| 20260504230007 | 80 | 248 | 7.0 | 8.7 | 0.00 | 0.00 | 0.00 | 1 | 1004.4 |
| 20260504225503 | 80 | 167 | 2.6 | 4.3 | 0.00 | 0.00 | 0.00 | 1 | 1004.3 |
| 20260504225000 | 80 | 190 | 8.7 | 11.3 | 0.00 | 0.00 | 0.00 | 1 | 1004.2 |
| 20260504224456 | 80 | 204 | 8.7 | 11.3 | 0.00 | 0.00 | 0.00 | 1 | 1004.2 |
| 20260504223953 | 81 | 215 | 6.1 | 8.7 | 0.00 | 0.00 | 0.00 | 1 | 1004.1 |
| 20260504223450 | 81 | 167 | 7.8 | 8.7 | 0.00 | 0.00 | 0.00 | 1 | 1004.0 |
| 20260504222945 | 81 | 188 | 4.3 | 5.2 | 0.00 | 0.00 | 0.00 | 1 | 1004.3 |
| 20260504222443 | 81 | 220 | 7.0 | 7.8 | 0.00 | 0.00 | 0.00 | 1 | 1004.2 |
| 20260504221941 | 81 | 195 | 11.3 | 13.0 | 0.00 | 0.00 | 0.00 | 1 | 1004.3 |
| 20260504221438 | 81 | 226 | 9.6 | 12.2 | 0.00 | 0.00 | 0.00 | 1 | 1004.3 |
| 20260504220934 | 81 | 233 | 11.3 | 20.0 | 0.00 | 0.00 | 0.00 | 1 | 1004.1 |
| 20260504220431 | 80 | 213 | 6.1 | 8.7 | 0.00 | 0.00 | 0.00 | 1 | 1004.3 |
| 20260504215928 | 80 | 146 | 5.2 | 7.0 | 0.00 | 0.00 | 0.00 | 1 | 1004.1 |
| 20260504215425 | 80 | 186 | 7.8 | 11.3 | 0.00 | 0.00 | 0.00 | 1 | 1004.2 |
| 20260504214921 | 78 | 186 | 3.5 | 5.2 | 0.00 | 0.00 | 0.00 | 1 | 1004.6 |
| 20260504214418 | 79 | 219 | 6.1 | 7.0 | 0.00 | 0.00 | 0.00 | 1 | 1004.2 |
| 20260504213915 | 79 | 232 | 5.2 | 7.8 | 0.00 | 0.00 | 0.00 | 1 | 1004.3 |
| 20260504213410 | 78 | 183 | 11.3 | 13.0 | 0.00 | 0.00 | 0.00 | 1 | 1004.3 |
| 20260504212908 | 79 | 242 | 7.8 | 9.6 | 0.00 | 0.00 | 0.00 | 1 | 1004.3 |
| 20260504212404 | 79 | 224 | 7.8 | 9.6 | 0.00 | 0.00 | 0.00 | 1 | 1004.3 |
| 20260504211902 | 81 | 213 | 7.0 | 8.7 | 0.00 | 0.00 | 0.00 | 1 | 1004.3 |
| 20260504211358 | 81 | 214 | 6.1 | 7.8 | 0.00 | 0.00 | 0.00 | 1 | 1004.3 |
| 20260504210855 | 81 | 209 | 8.7 | 13.0 | 0.00 | 0.00 | 0.00 | 1 | 1004.4 |
| 20260504210352 | 81 | 200 | 5.2 | 7.0 | 0.00 | 0.00 | 0.00 | 1 | 1004.6 |
| 20260504205849 | 80 | 244 | 5.2 | 7.8 | 0.00 | 0.00 | 0.00 | 1 | 1004.5 |
| 20260504205347 | 80 | 213 | 8.7 | 11.3 | 0.00 | 0.00 | 0.00 | 1 | 1004.6 |
| 20260504204845 | 80 | 188 | 6.1 | 7.0 | 0.00 | 0.00 | 0.00 | 1 | 1004.6 |
| 20260504204343 | 80 | 186 | 13.0 | 15.6 | 0.00 | 0.00 | 0.00 | 1 | 1004.9 |
| 20260504203842 | 80 | 201 | 7.0 | 8.7 | 0.00 | 0.00 | 0.00 | 1 | 1004.8 |
| 20260504203339 | 80 | 187 | 7.8 | 12.2 | 0.00 | 0.00 | 0.00 | 1 | 1004.7 |
| 20260504202834 | 80 | 242 | 8.7 | 9.6 | 0.00 | 0.00 | 0.00 | 1 | 1005.0 |
| 20260504202332 | 80 | 202 | 11.3 | 13.9 | 0.00 | 0.00 | 0.00 | 1 | 1004.9 |
| 20260504201828 | 80 | 219 | 7.8 | 12.2 | 0.00 | 0.00 | 0.00 | 1 | 1004.9 |
| 20260504201326 | 80 | 217 | 8.7 | 12.2 | 0.00 | 0.00 | 0.00 | 1 | 1004.7 |
| 20260504200823 | 80 | 181 | 6.1 | 6.1 | 0.00 | 0.00 | 0.00 | 1 | 1004.7 |
| 20260504200320 | 80 | 210 | 7.8 | 8.7 | 0.00 | 0.00 | 0.00 | 1 | 1004.9 |
| 20260504195816 | 80 | 213 | 8.7 | 12.2 | 0.00 | 0.00 | 0.00 | 1 | 1004.9 |
| 20260504195312 | 79 | 211 | 7.8 | 7.8 | 0.00 | 0.00 | 0.00 | 1 | 1005.1 |
| 20260504194809 | 80 | 232 | 7.0 | 11.3 | 0.00 | 0.00 | 0.00 | 1 | 1004.9 |
| 20260504194305 | 79 | 202 | 4.3 | 7.0 | 0.00 | 0.00 | 0.00 | 1 | 1004.9 |
| 20260504193801 | 79 | 183 | 6.1 | 7.8 | 0.00 | 0.00 | 0.00 | 1 | 1005.4 |
| 20260504193259 | 78 | 168 | 4.3 | 6.1 | 0.00 | 0.00 | 0.00 | 1 | 1005.4 |
| 20260504192757 | 77 | 204 | 4.3 | 7.0 | 0.00 | 0.00 | 0.00 | 1 | 1005.5 |
| 20260504192254 | 76 | 223 | 6.1 | 7.0 | 0.00 | 0.00 | 0.00 | 1 | 1005.5 |
| 20260504191753 | 76 | 173 | 8.7 | 13.0 | 0.00 | 0.00 | 0.00 | 1 | 1005.5 |
| 20260504191250 | 76 | 188 | 3.5 | 5.2 | 0.00 | 0.00 | 0.00 | 1 | 1005.7 |
| 20260504190745 | 75 | 204 | 3.5 | 5.2 | 0.00 | 0.00 | 0.00 | 1 | 1005.7 |
| 20260504190242 | 75 | 214 | 3.5 | 4.3 | 0.00 | 0.00 | 0.00 | 1 | 1005.6 |
| 20260504185738 | 73 | 189 | 3.5 | 4.3 | 0.00 | 0.00 | 0.00 | 1 | 1005.5 |
| 20260504185235 | 73 | 159 | 5.2 | 7.0 | 0.00 | 0.00 | 0.00 | 1 | 1005.4 |
| 20260504184731 | 74 | 131 | 2.6 | 2.6 | 0.00 | 0.00 | 0.00 | 1 | 1005.4 |
| 20260504184227 | 75 | 119 | 6.1 | 7.0 | 0.00 | 0.00 | 0.00 | 1 | 1006.2 |
| 20260504183723 | 75 | 188 | 5.2 | 6.1 | 0.00 | 0.00 | 0.00 | 1 | 1006.3 |
| 20260504183220 | 75 | 184 | 2.6 | 4.3 | 0.00 | 0.00 | 0.00 | 1 | 1006.3 |
| 20260504182718 | 75 | 176 | 2.6 | 4.3 | 0.00 | 0.00 | 0.00 | 1 | 1006.2 |
| 20260504182215 | 75 | 221 | 5.2 | 6.1 | 0.00 | 0.00 | 0.00 | 1 | 1006.3 |
| 20260504181713 | 76 | 211 | 4.3 | 6.1 | 0.00 | 0.00 | 0.00 | 1 | 1006.4 |
| 20260504181210 | 76 | 201 | 6.1 | 8.7 | 0.00 | 0.00 | 0.00 | 1 | 1005.8 |
| 20260504180709 | 76 | 178 | 4.3 | 6.1 | 0.00 | 0.00 | 0.00 | 1 | 1006.0 |
| 20260504180207 | 77 | 228 | 5.2 | 6.1 | 0.00 | 0.00 | 0.00 | 1 | 1005.7 |
| 20260504175704 | 77 | 209 | 6.1 | 7.0 | 0.00 | 0.00 | 0.00 | 1 | 1005.7 |
| 20260504175201 | 77 | 201 | 3.5 | 4.3 | 0.00 | 0.00 | 0.00 | 1 | 1006.0 |
| 20260504174659 | 77 | 191 | 8.7 | 9.6 | 0.00 | 0.00 | 0.00 | 1 | 1006.3 |
| 20260504174156 | 77 | 200 | 4.3 | 5.2 | 0.00 | 0.00 | 0.00 | 1 | 1006.1 |
| 20260504173653 | 77 | 203 | 6.1 | 7.8 | 0.00 | 0.00 | 0.00 | 1 | 1006.3 |
| 20260504173150 | 77 | 260 | 8.7 | 11.3 | 0.00 | 0.00 | 0.00 | 1 | 1006.3 |
| 20260504172647 | 77 | 265 | 11.3 | 13.9 | 0.00 | 0.00 | 0.00 | 1 | 1006.1 |
| 20260504172143 | 77 | 197 | 9.6 | 13.9 | 0.00 | 0.00 | 0.00 | 1 | 1006.6 |
| 20260504171639 | 77 | 199 | 9.6 | 12.2 | 0.00 | 0.00 | 0.00 | 1 | 1006.8 |
| 20260504171137 | 77 | 199 | 10.4 | 12.2 | 0.00 | 0.00 | 0.00 | 1 | 1006.6 |
| 20260504170633 | 77 | 235 | 10.4 | 12.2 | 0.00 | 0.00 | 0.00 | 1 | 1006.6 |
| 20260504170131 | 78 | 214 | 7.0 | 7.8 | 0.00 | 0.00 | 0.00 | 1 | 1006.6 |
| 20260504151015 | 71 | 232 | 7.0 | 7.8 | 0.00 | 0.00 | 0.00 | 1 | 1006.9 |
| 20260504150513 | 71 | 202 | 7.8 | 9.6 | 0.00 | 0.00 | 0.00 | 1 | 1006.7 |
| 20260504140939 | 66 | 214 | 10.4 | 12.2 | 0.00 | 0.00 | 0.00 | 1 | 1007.5 |
| 20260504140435 | 66 | 212 | 7.0 | 8.7 | 0.00 | 0.00 | 0.00 | 1 | 1007.6 |
| 20260504130400 | 65 | 174 | 3.5 | 4.3 | 0.00 | 0.00 | 0.00 | 1 | 1008.1 |
| 20260504110247 | 60 | 152 | 2.6 | 2.6 | 0.00 | 0.00 | 0.00 | 1 | 1008.6 |
| 20260504100211 | 61 | 152 | 0.9 | 1.7 | 0.00 | 0.00 | 0.00 | 1 | 1009.2 |
| 20260504090134 | 62 | 176 | 3.5 | 4.3 | 0.00 | 0.00 | 0.00 | 1 | 1009.2 |
| 20260504081604 | 64 | 219 | 3.5 | 4.3 | 0.00 | 0.00 | 0.00 | 1 | 1008.6 |
| 20260504081100 | 64 | 188 | 4.3 | 5.2 | 0.00 | 0.00 | 0.00 | 1 | 1008.7 |
| 20260504080557 | 64 | 164 | 6.1 | 7.8 | 0.00 | 0.00 | 0.00 | 1 | 1008.7 |
| 20260504050404 | 67 | 141 | 3.5 | 4.3 | 0.00 | 0.00 | 0.00 | 1 | 1010.0 |
| 20260504045901 | 67 | 167 | 6.1 | 7.8 | 0.00 | 0.00 | 0.00 | 1 | 1010.1 |
| 20260504045356 | 67 | 173 | 4.3 | 5.2 | 0.00 | 0.00 | 0.00 | 1 | 1010.2 |
| 20260504044853 | 67 | 180 | 4.3 | 5.2 | 0.00 | 0.00 | 0.00 | 1 | 1010.3 |
| 20260504044350 | 67 | 172 | 3.5 | 4.3 | 0.00 | 0.00 | 0.00 | 1 | 1010.2 |
| 20260504043848 | 68 | 200 | 5.2 | 6.1 | 0.00 | 0.00 | 0.00 | 1 | 1010.4 |
| 20260504043344 | 68 | 186 | 6.1 | 7.8 | 0.00 | 0.00 | 0.00 | 1 | 1010.4 |
| 20260504042842 | 68 | 190 | 2.6 | 4.3 | 0.00 | 0.00 | 0.00 | 1 | 1010.3 |
| 20260504042338 | 68 | 164 | 5.2 | 8.7 | 0.00 | 0.00 | 0.00 | 1 | 1010.5 |
| 20260504041834 | 68 | 198 | 5.2 | 7.0 | 0.00 | 0.00 | 0.00 | 1 | 1010.5 |
| 20260504041331 | 68 | 162 | 6.1 | 7.0 | 0.00 | 0.00 | 0.00 | 1 | 1010.8 |
| 20260504040827 | 68 | 187 | 4.3 | 5.2 | 0.00 | 0.00 | 0.00 | 1 | 1010.4 |
| 20260504040325 | 68 | 193 | 7.8 | 8.7 | 0.00 | 0.00 | 0.00 | 1 | 1010.3 |
| 20260504035820 | 68 | 139 | 3.5 | 5.2 | 0.00 | 0.00 | 0.00 | 1 | 1010.6 |
| 20260504035318 | 69 | 196 | 2.6 | 4.3 | 0.00 | 0.00 | 0.00 | 1 | 1010.5 |
| 20260504034815 | 69 | 184 | 4.3 | 5.2 | 0.00 | 0.00 | 0.00 | 1 | 1010.7 |
| 20260504034313 | 69 | 177 | 5.2 | 7.0 | 0.00 | 0.00 | 0.00 | 1 | 1010.6 |
| 20260504033810 | 69 | 124 | 5.2 | 7.8 | 0.00 | 0.00 | 0.00 | 1 | 1010.8 |
| 20260504033307 | 69 | 188 | 4.3 | 5.2 | 0.00 | 0.00 | 0.00 | 1 | 1010.9 |
| 20260504032803 | 69 | 202 | 2.6 | 2.6 | 0.00 | 0.00 | 0.00 | 1 | 1010.8 |
| 20260504032301 | 69 | 158 | 4.3 | 6.1 | 0.00 | 0.00 | 0.00 | 1 | 1010.8 |
| 20260504031757 | 70 | 190 | 5.2 | 6.1 | 0.00 | 0.00 | 0.00 | 1 | 1010.9 |
| 20260504031255 | 70 | 194 | 4.3 | 5.2 | 0.00 | 0.00 | 0.00 | 1 | 1010.8 |
| 20260504030751 | 70 | 166 | 5.2 | 7.8 | 0.00 | 0.00 | 0.00 | 1 | 1010.9 |
| 20260504030248 | 70 | 219 | 7.0 | 8.7 | 0.00 | 0.00 | 0.00 | 1 | 1010.9 |
| 20260504025744 | 70 | 199 | 6.1 | 7.8 | 0.00 | 0.00 | 0.00 | 1 | 1010.9 |
| 20260504025241 | 70 | 193 | 4.3 | 7.0 | 0.00 | 0.00 | 0.00 | 1 | 1011.0 |
| 20260504024733 | 70 | 176 | 3.5 | 4.3 | 0.00 | 0.00 | 0.00 | 1 | 1010.8 |
| 20260504024229 | 70 | 183 | 4.3 | 5.2 | 0.00 | 0.00 | 0.00 | 1 | 1010.9 |
| 20260504023726 | 70 | 198 | 4.3 | 6.1 | 0.00 | 0.00 | 0.00 | 1 | 1010.9 |
| 20260504023222 | 70 | 188 | 2.6 | 2.6 | 0.00 | 0.00 | 0.00 | 1 | 1010.9 |
| 20260504022718 | 70 | 185 | 4.3 | 7.0 | 0.00 | 0.00 | 0.00 | 1 | 1010.6 |
| 20260504022215 | 70 | 155 | 1.7 | 1.7 | 0.00 | 0.00 | 0.00 | 1 | 1010.7 |
| 20260504021712 | 70 | 180 | 2.6 | 2.6 | 0.00 | 0.00 | 0.00 | 1 | 1010.8 |
| 20260504021209 | 70 | 164 | 2.6 | 4.3 | 0.00 | 0.00 | 0.00 | 1 | 1010.8 |
| 20260504020705 | 71 | 185 | 6.1 | 7.0 | 0.00 | 0.00 | 0.00 | 1 | 1010.6 |
| 20260504020201 | 71 | 213 | 4.3 | 6.1 | 0.00 | 0.00 | 0.00 | 1 | 1010.6 |
| 20260504015659 | 71 | 176 | 3.5 | 4.3 | 0.00 | 0.00 | 0.00 | 1 | 1010.5 |
| 20260504015155 | 71 | 184 | 4.3 | 5.2 | 0.00 | 0.00 | 0.00 | 1 | 1010.7 |
| 20260504014650 | 71 | 180 | 4.3 | 7.0 | 0.00 | 0.00 | 0.00 | 1 | 1010.8 |
| 20260504014147 | 71 | 175 | 4.3 | 5.2 | 0.00 | 0.00 | 0.00 | 1 | 1010.4 |
| 20260504013645 | 71 | 196 | 3.5 | 4.3 | 0.00 | 0.00 | 0.00 | 1 | 1010.4 |
| 20260504013142 | 71 | 161 | 2.6 | 2.6 | 0.00 | 0.00 | 0.00 | 1 | 1010.5 |
| 20260504012639 | 72 | 177 | 4.3 | 5.2 | 0.00 | 0.00 | 0.00 | 1 | 1010.5 |
| 20260504012137 | 72 | 196 | 2.6 | 2.6 | 0.00 | 0.00 | 0.00 | 1 | 1010.4 |